Location: Bad+Waldsee
(47.9168°N, 9.7538°E)
Time: 01:10:31
(UTC+01:00)

ISS - Visible Passes

Search period start: 17 January 2021 00:00
Search period end: 27 January 2021 00:00
Orbit: 418 x 419 km, 51.6° (Epoch: 17 January)

Date Brightness Start Highest point End Pass type
(mag) Time Alt. Az. Time Alt. Az. Time Alt. Az.
18 Jan -1.5 18:41:43 10° S 18:43:00 14° SSE 18:43:00 14° SSE visible
19 Jan -1.7 19:28:58 10° SW 19:30:29 24° SSW 19:30:29 24° SSW visible
20 Jan -2.8 18:41:31 10° SSW 18:44:33 32° SE 18:44:55 31° SE visible
21 Jan -2.1 17:54:17 10° SSW 17:56:56 22° SE 17:59:17 12° E visible
21 Jan -2.3 19:30:03 10° WSW 19:32:14 37° WSW 19:32:14 37° WSW visible
22 Jan -3.8 18:42:17 10° WSW 18:45:38 72° SSE 18:46:31 45° E visible
22 Jan -0.2 20:19:20 10° W 20:19:28 11° W 20:19:28 11° W visible
23 Jan -3.2 17:54:38 10° SW 17:57:53 48° SSE 18:00:45 13° ENE visible
23 Jan -2.3 19:31:24 10° W 19:33:42 36° WNW 19:33:42 36° WNW visible
24 Jan -3.6 18:43:29 10° W 18:46:50 63° NNW 18:47:54 38° NE visible
24 Jan -0.2 20:20:43 10° WNW 20:20:50 11° WNW 20:20:50 11° WNW visible
25 Jan -3.7 17:55:37 10° WSW 17:59:00 83° NNW 18:02:03 12° ENE visible
25 Jan -2.1 19:32:48 10° WNW 19:35:00 31° NW 19:35:00 31° NW visible
26 Jan -3.1 18:44:51 10° W 18:48:07 45° N 18:49:08 33° NE visible
26 Jan -0.2 20:21:58 10° WNW 20:22:04 11° WNW 20:22:04 11° WNW visible
